Kezdőlap
METAR-TAF:

METAR-TAF

Repülőterek :

Chariton Municipal Airport

Chariton, Iowa, Amerikai Egyesült Államok

földrajzi szélesség: 41-02N, földrajzi hosszúság: 093-22W, magasság: 320 m

Jelenlegi meteorológiai megfigyelések

A jelentés 27 perccel ezelõtt készült, 20:35 UTC
Déli szél 24 kt széllökések: 30 kt
Hőmérséklet 13°C
Páratartalom 19%
Légköri nyomás 1021 hPa
Látótávolság: 16.1 km
Derült ég

METAR: KCNC 292035Z AUTO 18024G30KT 10SM CLR 13/M10 A3015 RMK AO2

Idő: 15:02 (21:02 UTC)


TAF: hiányzik

Meteorológiai megfigyelések és előrejelzések több, mint 4000 repülőtéren (METAR és TAF jelentéseket).

A térképen piros és sárga pontok jelzik az elérhető meteorológiai állomásokat.

Mozgassa az egeret a pont fölött, hogy megjelenjen az állomás neve.

Azután kattintson az időjárási megfigyelések és előrejelzések megtekintéséhez.

A térkép megváltoztatása: kattintson a fekete keresztel jelölt zöld gombra ráközelítéshez, a vonallal jelölt zöld gombra távolításhoz, vagy a zöld nyilakra a szomszédos térképek eléréséhez.


METAR-TAF: